Terug naar catalogus

OKEAN 2

ActiefWetenschapPO
NORAD 20510·PAYLOAD·🇷🇺 Russia

Gelanceerd Feb 28, 1990 vanaf Plesetsk Cosmodrome

Loading…

Volgende Passages (komende 24 uur)

TLE

VersSource: Space-Track

Epoch: Sep 13, 2026, 23:36 UTC

1 20510U 90018A   26256.98368637  .00003351  00000-0  16800-3 0  9997
2 20510  82.4993 145.6880 0006734  17.0586 353.6914 15.17006481967527

Volg OKEAN 2 in realtime met AllMySat

Download on the App Store